| time (UTC) | temp F | wind direction | speed knots | gust knots | rain 1hr in | rain 24hr in | rain mn in | humidity % | barometer mb |
| 20260504050019 | 46 | 313 | 0.0 | 0.0 | 0.00 | 0.00 | 0.00 | 73 | 1007.8 |
| 20260504044519 | 47 | 313 | 0.0 | 0.0 | 0.00 | 0.00 | 0.00 | 71 | 1008.0 |
| 20260504043031 | 48 | 313 | 0.0 | 0.0 | 0.00 | 0.00 | 0.00 | 70 | 1008.2 |
| 20260504041537 | 48 | 313 | 0.0 | 0.0 | 0.00 | 0.00 | 0.00 | 70 | 1008.2 |
| 20260504040111 | 49 | 313 | 0.0 | 0.0 | 0.00 | 0.00 | 0.00 | 69 | 1008.3 |
| 20260504034601 | 49 | 313 | 0.0 | 0.0 | 0.00 | 0.00 | 0.00 | 68 | 1008.4 |
| 20260504033007 | 50 | 313 | 0.0 | 0.0 | 0.00 | 0.00 | 0.00 | 64 | 1008.5 |
| 20260504031516 | 51 | 313 | 0.0 | 0.0 | 0.00 | 0.00 | 0.00 | 63 | 1008.6 |
| 20260504030051 | 53 | 313 | 0.0 | 0.0 | 0.00 | 0.00 | 0.00 | 60 | 1008.6 |
| 20260504024532 | 55 | 313 | 0.0 | 0.0 | 0.00 | 0.00 | 0.00 | 54 | 1008.6 |
| 20260504023007 | 58 | 313 | 0.0 | 0.0 | 0.00 | 0.00 | 0.00 | 49 | 1008.6 |
| 20260504021545 | 60 | 313 | 0.0 | 1.7 | 0.00 | 0.00 | 0.00 | 45 | 1008.4 |
| 20260504020021 | 61 | 313 | 0.9 | 3.5 | 0.00 | 0.00 | 0.00 | 42 | 1008.3 |
| 20260504014551 | 63 | 313 | 1.7 | 3.5 | 0.00 | 0.00 | 0.00 | 39 | 1008.4 |
| 20260504013025 | 65 | 311 | 1.7 | 5.2 | 0.00 | 0.00 | 0.00 | 37 | 1008.3 |
| 20260504011503 | 67 | 289 | 2.6 | 7.0 | 0.00 | 0.00 | 0.00 | 34 | 1007.9 |
| 20260504010035 | 68 | 293 | 3.5 | 8.7 | 0.00 | 0.00 | 0.00 | 33 | 1007.7 |
| 20260504004507 | 69 | 268 | 4.3 | 9.6 | 0.00 | 0.00 | 0.00 | 31 | 1007.7 |
| 20260504003013 | 71 | 279 | 3.5 | 9.6 | 0.00 | 0.00 | 0.00 | 32 | 1007.7 |
| 20260504001519 | 71 | 281 | 5.2 | 10.4 | 0.00 | 0.00 | 0.00 | 29 | 1007.6 |
| 20260504000031 | 72 | 279 | 4.3 | 13.9 | 0.00 | 0.00 | 0.00 | 29 | 1007.5 |
| 20260503234559 | 72 | 305 | 7.8 | 12.2 | 0.00 | 0.00 | 0.00 | 27 | 1007.5 |
| 20260503233055 | 73 | 308 | 7.0 | 15.6 | 0.00 | 0.00 | 0.00 | 26 | 1007.5 |
| 20260503231515 | 73 | 256 | 9.6 | 16.5 | 0.00 | 0.00 | 0.00 | 24 | 1007.5 |
| 20260503230052 | 73 | 288 | 9.6 | 15.6 | 0.00 | 0.00 | 0.00 | 25 | 1007.6 |
| 20260503224524 | 74 | 306 | 7.8 | 19.1 | 0.00 | 0.00 | 0.00 | 27 | 1007.5 |
| 20260503223003 | 74 | 306 | 7.8 | 16.5 | 0.00 | 0.00 | 0.00 | 27 | 1007.3 |
| 20260503221535 | 74 | 323 | 9.6 | 15.6 | 0.00 | 0.00 | 0.00 | 28 | 1007.2 |
| 20260503220005 | 74 | 323 | 11.3 | 18.2 | 0.00 | 0.00 | 0.00 | 25 | 1007.3 |
| 20260503214532 | 74 | 297 | 9.6 | 15.6 | 0.00 | 0.00 | 0.00 | 26 | 1007.3 |
| 20260503213009 | 74 | 320 | 8.7 | 17.4 | 0.00 | 0.00 | 0.00 | 29 | 1007.3 |
| 20260503211538 | 74 | 336 | 12.2 | 17.4 | 0.00 | 0.00 | 0.00 | 28 | 1007.3 |
| 20260503210100 | 74 | 335 | 11.3 | 17.4 | 0.00 | 0.00 | 0.00 | 31 | 1007.3 |
| 20260503204513 | 74 | 281 | 10.4 | 16.5 | 0.00 | 0.00 | 0.00 | 30 | 1007.5 |
| 20260503203020 | 74 | 278 | 8.7 | 17.4 | 0.00 | 0.00 | 0.00 | 30 | 1007.5 |
| 20260503201531 | 74 | 292 | 9.6 | 17.4 | 0.00 | 0.00 | 0.00 | 31 | 1007.6 |
| 20260503200037 | 73 | 336 | 11.3 | 20.0 | 0.00 | 0.00 | 0.00 | 31 | 1007.6 |
| 20260503194557 | 73 | 316 | 8.7 | 17.4 | 0.00 | 0.00 | 0.00 | 33 | 1007.7 |
| 20260503193006 | 72 | 310 | 9.6 | 20.0 | 0.00 | 0.00 | 0.00 | 33 | 1007.9 |
| 20260503191547 | 72 | 300 | 10.4 | 20.0 | 0.00 | 0.00 | 0.00 | 32 | 1007.9 |
| 20260503190018 | 71 | 254 | 8.7 | 15.6 | 0.00 | 0.00 | 0.00 | 37 | 1008.0 |
| 20260503184548 | 71 | 294 | 9.6 | 20.0 | 0.00 | 0.00 | 0.00 | 38 | 1008.1 |
| 20260503183018 | 70 | 247 | 7.8 | 16.5 | 0.00 | 0.00 | 0.00 | 40 | 1008.2 |
| 20260503181539 | 69 | 302 | 7.0 | 13.0 | 0.00 | 0.00 | 0.00 | 41 | 1008.4 |
| 20260503180059 | 69 | 232 | 6.1 | 15.6 | 0.00 | 0.00 | 0.00 | 42 | 1008.5 |
| 20260503174520 | 69 | 246 | 9.6 | 18.2 | 0.00 | 0.00 | 0.00 | 42 | 1008.7 |
| 20260503173041 | 68 | 267 | 13.0 | 20.0 | 0.00 | 0.00 | 0.00 | 41 | 1008.9 |
| 20260503171600 | 67 | 230 | 12.2 | 20.9 | 0.00 | 0.00 | 0.00 | 42 | 1009.0 |
| 20260503140109 | 55 | 212 | 13.0 | 19.1 | 0.00 | 0.00 | 0.00 | 55 | 1011.2 |
| 20260503081505 | 52 | 203 | 4.3 | 13.0 | 0.00 | 0.00 | 0.00 | 58 | 1015.7 |
| 20260503071610 | 51 | 206 | 9.6 | 13.9 | 0.00 | 0.00 | 0.00 | 55 | 1015.7 |